When you browse on this site, cookies collect data to enhance your experience and personalize the content and advertising you see.
Visit our Privacy Policy to learn more. By continuing to use the site, you agree to this use of cookies and data.
  • In Lithuania
  • List of Countries
  • For 7 days
  • Water Temperature
  • Weather Map
  • Weather Widgets
  • user-avatar
    Login

    Hourly Weather Nkongsamba

    Today, 20 August, Tuesday

    Time Temperature Precipitation Wind Pressure Humidity
    00:00 +18°C° 0.1 mm 0 mps 687 mmHg 98%
    01:00 +18°C° 0.1 mm 0 mps 686 mmHg 98%
    02:00 +18°C° 0 mm 0 mps 686 mmHg 98%
    03:00 +18°C° 0 mm 0 mps 686 mmHg 98%
    04:00 +17°C° 0 mm 0 mps 686 mmHg 98%
    05:00 +18°C° 0 mm 0 mps 686 mmHg 97%
    06:00 +18°C° 0 mm 0 mps 686 mmHg 97%
    07:00 +18°C° 0 mm 0 mps 687 mmHg 96%
    08:00 +20°C° 0 mm 0 mps 687 mmHg 89%
    09:00 +22°C° 0 mm 0 mps 688 mmHg 81%
    10:00 +24°C° 0 mm 0 mps 689 mmHg 73%
    11:00 +26°C° 1.6 mm 1 mps 688 mmHg 76%
    12:00 +26°C° 1.6 mm 1 mps 687 mmHg 79%
    13:00 +26°C° 1.6 mm 1 mps 687 mmHg 82%
    14:00 +26°C° 2.1 mm 1 mps 686 mmHg 84%
    15:00 +25°C° 2.1 mm 1 mps 686 mmHg 86%
    16:00 +25°C° 2.1 mm 1 mps 685 mmHg 88%
    17:00 +24°C° 1.7 mm 1 mps 685 mmHg 92%
    18:00 +23°C° 1.7 mm 1 mps 685 mmHg 95%
    19:00 +19°C° 1.7 mm 0 mps 686 mmHg 98%
    20:00 +19°C° 0.4 mm 0 mps 686 mmHg 98%
    21:00 +19°C° 0.4 mm 0 mps 687 mmHg 98%
    22:00 +19°C° 0.4 mm 0 mps 687 mmHg 98%
    23:00 +19°C° 0.5 mm 0 mps 687 mmHg 98%

    Tomorrow, 21 August, Wednesday

    Time Temperature Precipitation Wind Pressure Humidity
    00:00 +19°C° 0.5 mm 0 mps 687 mmHg 98%
    01:00 +18°C° 0.5 mm 0 mps 687 mmHg 98%
    02:00 +18°C° 0.7 mm 0 mps 687 mmHg 98%
    03:00 +18°C° 0.7 mm 0 mps 686 mmHg 98%
    04:00 +18°C° 0.7 mm 0 mps 686 mmHg 99%
    05:00 +18°C° 1.5 mm 0 mps 686 mmHg 99%
    06:00 +18°C° 1.5 mm 0 mps 687 mmHg 99%
    07:00 +19°C° 1.5 mm 0 mps 687 mmHg 99%
    08:00 +19°C° 4.1 mm 0 mps 688 mmHg 98%
    09:00 +19°C° 4.1 mm 0 mps 688 mmHg 97%
    10:00 +19°C° 4.1 mm 0 mps 689 mmHg 97%
    11:00 +19°C° 3.8 mm 0 mps 688 mmHg 97%
    12:00 +21°C° 3.8 mm 1 mps 687 mmHg 97%
    13:00 +21°C° 3.8 mm 1 mps 687 mmHg 97%
    14:00 +21°C° 0.3 mm 1 mps 686 mmHg 96%
    15:00 +21°C° 0.3 mm 1 mps 686 mmHg 96%
    16:00 +21°C° 0.3 mm 1 mps 685 mmHg 96%
    17:00 +19°C° 0.2 mm 0 mps 686 mmHg 96%
    18:00 +18°C° 0.2 mm 0 mps 686 mmHg 97%
    19:00 +18°C° 0.2 mm 0 mps 686 mmHg 97%
    20:00 +18°C° 0.2 mm 0 mps 686 mmHg 97%
    21:00 +18°C° 0.2 mm 0 mps 687 mmHg 96%
    22:00 +18°C° 0.2 mm 0 mps 687 mmHg 96%
    23:00 +20°C° 0.1 mm 1 mps 687 mmHg 95%

    Day after tomorrow, 22 August, Thursday

    Time Temperature Precipitation Wind Pressure Humidity
    00:00 +20°C° 0.1 mm 1 mps 686 mmHg 94%
    01:00 +20°C° 0.1 mm 1 mps 686 mmHg 94%
    02:00 +19°C° 0 mm 1 mps 686 mmHg 94%
    03:00 +17°C° 0 mm 0 mps 686 mmHg 94%
    04:00 +17°C° 0 mm 0 mps 686 mmHg 94%
    05:00 +17°C° 0 mm 0 mps 686 mmHg 94%
    06:00 +17°C° 0 mm 0 mps 686 mmHg 94%
    07:00 +17°C° 0 mm 0 mps 687 mmHg 94%
    08:00 +19°C° 0 mm 0 mps 687 mmHg 89%
    09:00 +20°C° 0 mm 0 mps 688 mmHg 84%
    10:00 +21°C° 0 mm 0 mps 688 mmHg 79%
    11:00 +22°C° 0 mm 0 mps 688 mmHg 74%
    12:00 +25°C° 0 mm 1 mps 688 mmHg 70%
    13:00 +26°C° 0 mm 1 mps 687 mmHg 66%
    14:00 +26°C° 0.1 mm 1 mps 687 mmHg 68%
    15:00 +26°C° 0.1 mm 1 mps 686 mmHg 70%
    16:00 +26°C° 0.1 mm 1 mps 685 mmHg 73%
    17:00 +24°C° 0.2 mm 1 mps 686 mmHg 80%
    18:00 +23°C° 0.2 mm 1 mps 686 mmHg 88%
    19:00 +20°C° 0.2 mm 0 mps 686 mmHg 96%
    20:00 +19°C° 0.1 mm 0 mps 686 mmHg 96%
    21:00 +19°C° 0.1 mm 0 mps 687 mmHg 97%
    22:00 +19°C° 0.1 mm 0 mps 687 mmHg 97%
    23:00 +19°C° 0 mm 0 mps 687 mmHg 97%

    23 August, Friday

    Time Temperature Precipitation Wind Pressure Humidity
    00:00 +19°C° 0 mm 0 mps 687 mmHg 97%
    01:00 +18°C° 0 mm 0 mps 687 mmHg 98%
    02:00 +18°C° 0.1 mm 0 mps 686 mmHg 98%
    03:00 +18°C° 0.1 mm 0 mps 686 mmHg 98%
    04:00 +18°C° 0.1 mm 0 mps 686 mmHg 98%
    05:00 +18°C° 0 mm 0 mps 686 mmHg 97%
    06:00 +18°C° 0 mm 0 mps 687 mmHg 96%
    07:00 +18°C° 0 mm 0 mps 687 mmHg 96%
    08:00 +20°C° 0.2 mm 0 mps 688 mmHg 89%
    09:00 +22°C° 0.2 mm 0 mps 689 mmHg 82%
    10:00 +23°C° 0.2 mm 0 mps 689 mmHg 76%
    11:00 +25°C° 2 mm 1 mps 688 mmHg 80%
    12:00 +25°C° 2 mm 1 mps 688 mmHg 85%
    13:00 +24°C° 2 mm 1 mps 687 mmHg 90%
    14:00 +23°C° 1.7 mm 1 mps 686 mmHg 92%
    15:00 +22°C° 1.7 mm 1 mps 686 mmHg 95%
    16:00 +22°C° 1.7 mm 1 mps 685 mmHg 97%
    17:00 +21°C° 0.9 mm 1 mps 685 mmHg 98%
    18:00 +19°C° 0.9 mm 0 mps 686 mmHg 98%
    19:00 +19°C° 0.9 mm 0 mps 686 mmHg 98%
    20:00 +19°C° 0.2 mm 0 mps 687 mmHg 98%
    21:00 +19°C° 0.2 mm 0 mps 687 mmHg 98%
    22:00 +19°C° 0.2 mm 0 mps 687 mmHg 98%
    23:00 +19°C° 0.1 mm 0 mps 687 mmHg 98%

    24 August, Saturday

    Time Temperature Precipitation Wind Pressure Humidity
    00:00 +18°C° 0.1 mm 0 mps 687 mmHg 98%
    01:00 +18°C° 0.1 mm 0 mps 687 mmHg 98%
    02:00 +18°C° 0.2 mm 0 mps 687 mmHg 98%
    03:00 +18°C° 0.2 mm 0 mps 687 mmHg 98%
    04:00 +18°C° 0.2 mm 0 mps 686 mmHg 99%
    05:00 +18°C° 0.1 mm 0 mps 687 mmHg 98%
    06:00 +18°C° 0.1 mm 0 mps 687 mmHg 98%
    07:00 +18°C° 0.1 mm 0 mps 687 mmHg 98%
    08:00 +18°C° 0.3 mm 0 mps 688 mmHg 97%
    09:00 +19°C° 0.3 mm 0 mps 688 mmHg 96%
    10:00 +19°C° 0.3 mm 0 mps 688 mmHg 96%
    11:00 +20°C° 0.7 mm 0 mps 688 mmHg 93%
    12:00 +22°C° 0.7 mm 1 mps 688 mmHg 90%
    13:00 +23°C° 0.7 mm 1 mps 688 mmHg 87%
    14:00 +23°C° 0.6 mm 1 mps 687 mmHg 88%
    15:00 +23°C° 0.6 mm 1 mps 687 mmHg 89%
    16:00 +22°C° 0.6 mm 1 mps 687 mmHg 89%
    17:00 +20°C° 0.3 mm 0 mps 687 mmHg 92%
    18:00 +19°C° 0.3 mm 0 mps 687 mmHg 94%
    19:00 +18°C° 0.3 mm 0 mps 687 mmHg 96%
    20:00 +18°C° 0 mm 0 mps 687 mmHg 95%
    21:00 +18°C° 0 mm 0 mps 688 mmHg 95%
    22:00 +18°C° 0 mm 0 mps 688 mmHg 94%
    23:00 +19°C° 0 mm 1 mps 688 mmHg 94%

    25 August, Sunday

    Time Temperature Precipitation Wind Pressure Humidity
    00:00 +19°C° 0 mm 1 mps 688 mmHg 94%
    01:00 +19°C° 0 mm 1 mps 687 mmHg 94%
    02:00 +19°C° 0 mm 1 mps 687 mmHg 94%
    03:00 +19°C° 0 mm 1 mps 687 mmHg 95%
    04:00 +17°C° 0 mm 0 mps 687 mmHg 95%
    05:00 +17°C° 0 mm 0 mps 687 mmHg 95%
    06:00 +17°C° 0 mm 0 mps 687 mmHg 95%
    07:00 +17°C° 0 mm 0 mps 688 mmHg 95%
    08:00 +18°C° 0 mm 0 mps 688 mmHg 92%
    09:00 +19°C° 0 mm 0 mps 688 mmHg 90%
    10:00 +19°C° 0 mm 0 mps 689 mmHg 88%
    11:00 +20°C° 0 mm 0 mps 689 mmHg 84%
    12:00 +21°C° 0 mm 0 mps 688 mmHg 81%
    13:00 +22°C° 0 mm 0 mps 688 mmHg 78%
    14:00 +22°C° 0.3 mm 0 mps 688 mmHg 77%
    15:00 +22°C° 0.3 mm 0 mps 687 mmHg 77%
    16:00 +22°C° 0.3 mm 0 mps 687 mmHg 76%
    17:00 +21°C° 0.3 mm 0 mps 687 mmHg 82%
    18:00 +20°C° 0.3 mm 0 mps 687 mmHg 88%
    19:00 +18°C° 0.3 mm 0 mps 687 mmHg 94%
    20:00 +18°C° 0.1 mm 0 mps 687 mmHg 94%
    21:00 +18°C° 0.1 mm 0 mps 688 mmHg 94%
    22:00 +18°C° 0.1 mm 0 mps 688 mmHg 94%
    23:00 +18°C° 0 mm 0 mps 688 mmHg 95%
    Show more